This demonstration page uses our WeatherBlox Daily Observations layout. Learn more.

Left ArrowRight Arrow

53.62937, 11.41316

Hourly Observations for May 21, 2019

Temp ( °F °C ) Dew Point ( °F °C ) Humidity (%) Winds ( mph kmh ) Pressure ( in mb ) Visibility ( mi km ) Precip ( " mm )
6:50 am 06:50 Mostly Cloudy 59 15 55 13 88 88 NNE 5 7 29.68 1005 30 48 N/A
7:20 am 07:20 Mostly Cloudy 59 15 57 14 94 94 N 6 9 29.68 1005 30 48 N/A
7:50 am 07:50 Mostly Cloudy 59 15 55 13 88 88 VRB 2 4 29.68 1005 30 48 N/A
8:20 am 08:20 Mostly Cloudy 59 15 55 13 88 88 VRB 2 4 29.68 1005 5 8 N/A
8:50 am 08:50 Mostly Cloudy 59 15 57 14 94 94 VRB 2 4 29.68 1005 30 48 N/A
9:20 am 09:20 Mostly Cloudy 59 15 57 14 94 94 VRB 2 4 29.68 1005 30 48 N/A
9:50 am 09:50 Mostly Cloudy 61 16 55 13 83 83 VRB 3 6 29.68 1005 30 48 N/A
10:20 am 10:20 Mostly Cloudy 61 16 57 14 88 88 VRB 3 6 29.71 1006 30 48 N/A
10:50 am 10:50 Mostly Cloudy 59 15 57 14 94 94 VRB 3 6 29.71 1006 30 48 N/A
11:20 am 11:20 Mostly Cloudy 59 15 55 13 88 88 VRB 2 4 29.71 1006 30 48 N/A
11:50 am 11:50 Mostly Cloudy 59 15 55 13 88 88 VRB 3 6 29.71 1006 30 48 N/A
12:20 pm 12:20 Mostly Cloudy 61 16 57 14 88 88 VRB 3 6 29.71 1006 30 48 N/A
12:50 pm 12:50 Cloudy 61 16 57 14 88 88 VRB 2 4 29.74 1007 30 48 N/A
1:20 pm 13:20 Cloudy 61 16 57 14 88 88 VRB 2 4 29.74 1007 6 9 N/A
1:50 pm 13:50 Cloudy 61 16 57 14 88 88 VRB 3 6 29.74 1007 6 9 N/A
2:20 pm 14:20 Cloudy 61 16 57 14 88 88 VRB 2 4 29.74 1007 6 9 N/A
2:50 pm 14:50 Cloudy 61 16 57 14 88 88 VRB 2 4 29.74 1007 5 8 N/A
3:20 pm 15:20 Cloudy 61 16 57 14 88 88 NW 3 6 29.74 1007 4 6 N/A
3:50 pm 15:50 Partly Cloudy with Mist and Fog 59 15 59 15 100 100 W 2 4 29.74 1007 2 3 N/A
4:20 pm 16:20 Cloudy with Light Rain 59 15 59 15 100 100 WSW 3 6 29.74 1007 2 4 N/A
4:50 pm 16:50 Mostly Cloudy with Mist and Fog 59 15 59 15 100 100 W 3 6 29.74 1007 3 5 N/A
5:20 pm 17:20 Mostly Cloudy with Light Rain 61 16 59 15 94 94 W 5 7 29.74 1007 3 5 N/A
5:50 pm 17:50 Mostly Cloudy with Light Rain 59 15 59 15 100 100 W 5 7 29.74 1007 2 3 N/A
6:20 pm 18:20 Mostly Cloudy with Light Rain 61 16 59 15 94 94 W 3 6 29.74 1007 3 5 N/A
6:50 pm 18:50 Mostly Cloudy with Light Rain 61 16 59 15 94 94 W 3 6 29.74 1007 3 4 N/A
7:20 pm 19:20 Mostly Cloudy with Light Rain 61 16 59 15 94 94 W 5 7 29.77 1008 3 5 N/A
7:50 pm 19:50 Cloudy with Rain 59 15 59 15 100 100 W 6 9 29.77 1008 4 6 N/A
8:20 pm 20:20 Cloudy with Light Rain 59 15 57 14 94 94 W 6 9 29.77 1008 4 7 N/A
8:50 pm 20:50 Cloudy with Rain 59 15 57 14 94 94 W 5 7 29.77 1008 4 7 N/A

Powered by AerisWeather